Regional Weather Roundup
Issued by NWS

Home | Current Version | Previous Version | Text Only | Print | Product List | Glossary On
Versions: 1 2 3 4 5 6 7 8 9 10 11 12 13 14 15 16 17 18 19 20 21 22 23 24 25 26 27 28 29 30 31 32 33 34 35 36 37 38 39 40 41 42 43 44 45 46 47 48 49 50
508
ASUS44 KJAN 310510
RWRMS

MISSISSIPPI HOURLY WEATHER ROUNDUP
NATIONAL WEATHER SERVICE JACKSON MS
1200 AM CDT THU JUL 31 2014

NOTE: "FAIR: INDICATES FEW OR NO CLOUDS BELOW 12,000 FEET WITH NO
SIGNIFICANT WEATHER AND/OR OBSTRUCTIONS TO VISIBILITY.

MSZ001>002-007>008-010>013-018>021-025>028-034>036-310600-
NORTHWEST MISSISSIPPI

CITY           SKY/WX    TMP DP  RH WIND       PRES   REMARKS
CLARKSDALE     CLOUDY    72  70  94 NW5       30.07S
CLEVELAND      CLOUDY    71  69  96 N5        30.05S
GREENWOOD      MOCLDY    70  67  90 CALM      30.06S
GREENVILLE     CLOUDY    72  69  90 NW5       30.06R
GRENADA        FAIR      70  64  83 CALM      30.07R
OLIVE BRANCH   MOCLDY    72  70  94 CALM      30.08R
OXFORD         FAIR      70  64  83 CALM      30.09R
TUNICA         CLOUDY    72  66  83 NW5       30.08R
$$

MSZ003>006-009-014>017-022>024-029>033-037>039-310600-
NORTHEAST MISSISSIPPI

CITY           SKY/WX    TMP DP  RH WIND       PRES   REMARKS
BELMONT        FAIR      68  66  91 CALM      30.07F
COLUMBUS AFB   CLOUDY    70  65  82 N1        30.05F
CORINTH        FAIR      68  66  94 CALM      30.07S
GOLDN TRIANGLE CLOUDY    70  61  73 CALM      30.06S
STARKVILLE     FAIR      68  64  88 CALM      30.05S
TUPELO         CLOUDY    72  65  78 NE3       30.05F
$$

MSZ040-058-310600-
CENTRAL MISSISSIPPI

CITY           SKY/WX    TMP DP  RH WIND       PRES   REMARKS
JACKSON INTL   MOCLDY    72  60  66 NE3       30.06R
JACKSON HAWKNS MOCLDY    74  60  61 CALM      30.06S
MERIDIAN KEY   MOCLDY    67  60  78 CALM      30.04F
MERIDIAN NAS   MOCLDY    67  61  81 CALM      30.05S
RAYMOND        FAIR      68  63  83 CALM      30.06S
VICKSBURG      MOCLDY    70  66  87 CALM      30.05S
$$

MSZ059>079-310600-
SOUTH MISSISSIPPI

CITY           SKY/WX    TMP DP  RH WIND       PRES   REMARKS
BROOKHAVEN     FAIR      66  64  94 CALM      30.07S
COLUMBIA       FAIR      64  63  94 CALM      30.03F
HATTIESBURG    CLEAR     67  63  87 CALM      30.05S
MCCOMB         CLEAR     68  62  81 CALM      30.05S
NATCHEZ        MOCLDY    72  63  73 NE3       30.06R
PINE BELT      CLEAR     66  59  77 CALM      30.06S
$$

MSZ080>082-310600-
COASTAL MISSISSIPPI

CITY           SKY/WX    TMP DP  RH WIND       PRES   REMARKS
BILOXI         CLEAR     72  62  69 NE3       30.02F
PASCAGOULA     CLEAR     65  63  93 CALM      30.02F
GULFPORT       CLEAR     75  61  61 CALM      30.01F
$$



USA.gov is the U.S. government's official web portal to all federal, state and local government web resources and services.